contact:dominique.lefevre@mio.osupytheas.fr, maurice.libes@osupytheas.fr, didier.mallarino@osupytheas.fr
Project:EMSO http://www.emso-fr.org/EMSO-France
Depth: 2436.0 m
Title:EMSO Ligure Ouest : Data MII capteur AQUADOPP
Date,Latitude,Longitude,X_East,Y_North,Z_Up,Amplitude_X,Amplitude_Y,Amplitude_Z,Batterie,SoundSpeed,Heading,Pitch,Roll,Pressure,TIS,Speed,Direction
, degrees North, degrees East, m.s-1, m.s-1,m.s-1, 1, 1, 1, Volt, m.s-1, degree, degree, degree, dbar, degree_C, m.s-1, degree
2022-08-17T00:04:03,42.805,6.029,-0.009,0.0,-0.011,102.0,103.0,101.0,13.3,1505.2,333.6,-0.8,1.8,2471.062,13.28,0.009,270.0
2022-08-17T00:07:03,42.805,6.029,0.014,-0.005,-0.003,103.0,103.0,101.0,13.4,1505.2,319.9,-0.7,1.8,2471.031,13.28,0.014,109.6
2022-08-17T00:10:03,42.805,6.029,0.014,0.014,0.0,102.0,104.0,101.0,13.4,1505.2,321.6,-0.8,1.8,2471.053,13.28,0.019,45.0
2022-08-17T00:13:03,42.805,6.029,0.012,-0.001,-0.016,102.0,102.0,102.0,13.4,1505.2,323.3,-0.8,1.9,2471.01,13.29,0.012,94.8
2022-08-17T00:16:03,42.805,6.029,0.001,0.008,0.009,102.0,102.0,101.0,13.3,1505.2,321.2,-0.8,1.8,2470.962,13.29,0.008,7.1
2022-08-17T00:19:03,42.805,6.029,0.015,-0.01,0.031,102.0,103.0,101.0,13.3,1505.2,330.0,-0.8,1.8,2471.02,13.29,0.018,123.7
2022-08-17T00:22:03,42.805,6.029,0.004,0.007,-0.002,101.0,102.0,102.0,13.3,1505.2,318.8,-0.8,1.8,2470.979,13.29,0.008,29.7
2022-08-17T00:25:03,42.805,6.029,0.001,-0.003,-0.017,102.0,105.0,101.0,13.4,1505.2,325.1,-0.7,1.8,2470.983,13.29,0.003,161.6
2022-08-17T00:28:03,42.805,6.029,0.01,0.002,-0.011,102.0,104.0,101.0,13.3,1505.2,329.0,-0.8,1.8,2471.0,13.29,0.01,78.7
2022-08-17T00:31:03,42.805,6.029,0.031,0.006,0.026,103.0,102.0,101.0,13.3,1505.2,333.1,-0.8,1.8,2470.96,13.29,0.031,79.0
2022-08-17T00:34:03,42.805,6.029,-0.001,0.006,-0.012,103.0,103.0,101.0,13.4,1505.2,328.7,-0.7,1.8,2470.933,13.29,0.006,350.5
2022-08-17T00:37:03,42.805,6.029,0.015,0.004,0.006,102.0,103.0,101.0,13.3,1505.2,328.1,-0.8,1.8,2470.972,13.29,0.015,75.1
2022-08-17T00:40:03,42.805,6.029,0.003,-0.006,-0.003,102.0,103.0,101.0,13.3,1505.2,334.5,-0.7,1.8,2470.97,13.29,0.006,153.4
2022-08-17T00:43:03,42.805,6.029,0.013,0.01,0.014,103.0,103.0,101.0,13.4,1505.2,324.4,-0.8,1.8,2470.944,13.29,0.016,52.4
2022-08-17T00:46:03,42.805,6.029,0.013,0.001,-0.027,103.0,103.0,101.0,13.4,1505.2,324.8,-0.7,1.9,2470.947,13.29,0.013,85.6
2022-08-17T00:49:03,42.805,6.029,-0.009,0.011,-0.019,104.0,102.0,101.0,13.4,1505.2,333.1,-0.8,1.8,2470.979,13.29,0.014,320.7
2022-08-17T00:52:03,42.805,6.029,0.004,0.0,0.002,103.0,102.0,101.0,13.4,1505.2,326.4,-0.8,1.8,2470.949,13.29,0.004,90.0
2022-08-17T00:55:03,42.805,6.029,0.021,0.002,-0.037,104.0,103.0,101.0,13.4,1505.2,323.2,-0.7,1.8,2470.912,13.29,0.021,84.6
2022-08-17T00:58:03,42.805,6.029,0.005,-0.008,-0.009,103.0,102.0,103.0,13.4,1505.2,323.7,-0.8,1.8,2470.94,13.29,0.009,148.0
2022-08-17T01:04:03,42.805,6.029,-0.031,0.014,0.015,104.0,104.0,102.0,13.3,1505.2,320.8,-0.8,1.8,2471.002,13.28,0.034,294.3
2022-08-17T01:07:03,42.805,6.029,0.008,-0.005,0.005,104.0,104.0,101.0,13.3,1505.2,332.3,-0.8,1.8,2470.934,13.28,0.009,122.0
2022-08-17T01:10:03,42.805,6.029,0.009,0.003,-0.017,103.0,103.0,102.0,13.4,1505.2,320.3,-0.7,1.8,2471.037,13.29,0.009,71.6
2022-08-17T01:13:03,42.805,6.029,0.029,0.001,-0.022,103.0,104.0,100.0,13.3,1505.2,320.8,-0.8,1.8,2470.936,13.29,0.029,88.0
2022-08-17T01:16:03,42.805,6.029,0.013,0.014,0.036,103.0,102.0,102.0,13.4,1505.2,332.0,-0.8,1.8,2470.951,13.29,0.019,42.9
2022-08-17T01:19:03,42.805,6.029,0.006,0.007,-0.045,102.0,103.0,101.0,13.4,1505.2,322.8,-0.7,1.8,2470.923,13.29,0.009,40.6
2022-08-17T01:22:03,42.805,6.029,0.015,0.0,-0.023,101.0,104.0,101.0,13.4,1505.2,321.5,-0.7,1.8,2470.942,13.29,0.015,90.0
2022-08-17T01:25:03,42.805,6.029,0.003,0.004,0.012,103.0,103.0,101.0,13.4,1505.2,330.8,-0.8,1.9,2470.945,13.29,0.005,36.9
2022-08-17T01:28:03,42.805,6.029,0.01,0.016,0.034,103.0,103.0,100.0,13.4,1505.2,329.4,-0.7,1.8,2470.991,13.29,0.018,32.0
2022-08-17T01:31:03,42.805,6.029,0.002,0.01,-0.018,104.0,103.0,101.0,13.3,1505.2,329.9,-0.8,1.8,2470.937,13.29,0.01,11.3
2022-08-17T01:34:03,42.805,6.029,0.019,-0.006,0.014,102.0,105.0,101.0,13.3,1505.2,319.8,-0.8,1.8,2470.929,13.29,0.019,107.5
2022-08-17T01:37:03,42.805,6.029,0.007,-0.012,-0.023,103.0,103.0,99.0,13.3,1505.2,330.6,-0.8,1.8,2470.942,13.29,0.013,149.7
2022-08-17T01:40:03,42.805,6.029,-0.002,0.027,0.021,102.0,102.0,101.0,13.4,1505.2,329.1,-0.8,1.8,2470.911,13.29,0.027,355.8
2022-08-17T01:43:03,42.805,6.029,0.001,-0.001,0.0,102.0,103.0,101.0,13.4,1505.2,327.6,-0.8,1.8,2470.94,13.29,0.001,135.0
2022-08-17T01:46:03,42.805,6.029,0.021,0.014,-0.01,103.0,103.0,101.0,13.4,1505.2,326.7,-0.7,1.8,2470.944,13.29,0.025,56.3
2022-08-17T01:49:03,42.805,6.029,-0.01,-0.011,0.008,103.0,103.0,101.0,13.4,1505.2,329.3,-0.8,1.9,2470.942,13.29,0.014,222.3
2022-08-17T01:52:03,42.805,6.029,0.0,0.008,-0.028,102.0,103.0,100.0,13.3,1505.2,324.0,-0.7,1.8,2470.9,13.29,0.008,0.0
2022-08-17T01:55:03,42.805,6.029,-0.013,-0.005,-0.01,101.0,105.0,101.0,13.3,1505.2,320.7,-0.8,1.8,2470.919,13.29,0.013,249.0
2022-08-17T01:58:03,42.805,6.029,0.004,-0.002,0.004,102.0,104.0,101.0,13.3,1505.2,323.5,-0.8,1.8,2470.912,13.29,0.004,116.6
2022-08-17T02:04:03,42.805,6.029,0.012,0.001,-0.02,103.0,105.0,101.0,13.4,1505.2,324.8,-0.7,1.8,2470.933,13.28,0.012,85.2
2022-08-17T02:07:03,42.805,6.029,0.014,-0.021,-0.041,103.0,103.0,101.0,13.4,1505.2,318.7,-0.8,1.8,2470.967,13.29,0.025,146.3
2022-08-17T02:10:03,42.805,6.029,0.017,0.012,0.0,102.0,103.0,101.0,13.4,1505.2,322.1,-0.7,1.8,2470.931,13.29,0.02,54.8
2022-08-17T02:13:03,42.805,6.029,-0.007,0.013,-0.015,102.0,102.0,101.0,13.4,1505.2,331.0,-0.7,1.8,2470.926,13.29,0.014,331.7
2022-08-17T02:16:03,42.805,6.029,0.015,0.008,0.001,102.0,102.0,102.0,13.4,1505.2,327.7,-0.7,1.8,2470.922,13.29,0.017,61.9
2022-08-17T02:19:03,42.805,6.029,0.006,-0.004,0.004,103.0,106.0,100.0,13.4,1505.2,321.8,-0.8,1.8,2470.894,13.29,0.007,123.7
2022-08-17T02:22:03,42.805,6.029,0.011,0.003,0.047,103.0,102.0,102.0,13.3,1505.2,328.3,-0.8,1.8,2470.899,13.29,0.011,74.7
2022-08-17T02:25:03,42.805,6.029,0.019,-0.007,-0.015,102.0,103.0,101.0,13.4,1505.2,320.6,-0.8,1.8,2470.92,13.29,0.02,110.2
2022-08-17T02:28:03,42.805,6.029,0.009,0.01,0.002,102.0,102.0,102.0,13.4,1505.2,325.1,-0.8,1.8,2470.936,13.29,0.013,42.0
2022-08-17T02:31:03,42.805,6.029,0.028,0.007,0.021,104.0,104.0,99.0,13.4,1505.2,323.9,-0.8,1.8,2470.951,13.29,0.028,76.0
2022-08-17T02:34:03,42.805,6.029,0.021,0.008,0.01,102.0,104.0,102.0,13.4,1505.2,330.4,-0.8,1.8,2470.94,13.29,0.022,69.1
2022-08-17T02:37:03,42.805,6.029,0.0,-0.01,0.005,104.0,102.0,102.0,13.3,1505.2,323.4,-0.8,1.8,2470.895,13.29,0.01,180.0
2022-08-17T02:40:03,42.805,6.029,0.009,0.012,-0.005,102.0,104.0,100.0,13.3,1505.2,320.1,-0.8,1.8,2470.889,13.29,0.015,36.9
2022-08-17T02:43:03,42.805,6.029,0.01,-0.003,-0.023,103.0,104.0,100.0,13.4,1505.2,324.1,-0.7,1.8,2470.911,13.29,0.01,106.7
2022-08-17T02:46:03,42.805,6.029,0.01,-0.004,0.012,103.0,102.0,101.0,13.4,1505.2,327.9,-0.8,1.8,2470.87,13.29,0.01,111.8
2022-08-17T02:49:03,42.805,6.029,0.007,0.035,0.007,102.0,103.0,100.0,13.3,1505.2,323.7,-0.8,1.8,2470.915,13.29,0.035,11.3
2022-08-17T02:52:03,42.805,6.029,0.011,0.003,0.006,103.0,103.0,101.0,13.4,1505.2,317.6,-0.8,1.8,2470.921,13.29,0.011,74.7
2022-08-17T02:55:03,42.805,6.029,0.01,0.004,-0.002,101.0,103.0,101.0,13.4,1505.2,330.6,-0.8,1.8,2470.897,13.29,0.01,68.2
2022-08-17T02:58:03,42.805,6.029,0.003,0.001,-0.013,103.0,102.0,100.0,13.4,1505.2,322.4,-0.8,1.8,2470.936,13.29,0.003,71.6
2022-08-17T03:04:03,42.805,6.029,0.005,0.005,-0.02,103.0,103.0,100.0,13.3,1505.2,332.8,-0.8,1.8,2470.977,13.28,0.007,45.0
2022-08-17T03:07:03,42.805,6.029,0.011,0.003,0.011,102.0,103.0,100.0,13.4,1505.2,321.1,-0.8,1.8,2470.946,13.28,0.011,74.7
2022-08-17T03:10:03,42.805,6.029,-0.008,0.017,-0.009,102.0,103.0,108.0,13.4,1505.2,320.7,-0.7,1.9,2470.943,13.29,0.018,334.8
2022-08-17T03:13:03,42.805,6.029,0.012,-0.009,-0.031,102.0,102.0,102.0,13.4,1505.2,333.9,-0.8,1.8,2470.922,13.29,0.015,126.9
2022-08-17T03:16:03,42.805,6.029,0.034,-0.002,-0.022,103.0,103.0,101.0,13.3,1505.2,324.5,-0.8,1.8,2470.951,13.29,0.034,93.4
2022-08-17T03:19:03,42.805,6.029,0.003,0.009,0.008,102.0,104.0,101.0,13.4,1505.2,321.1,-0.8,1.8,2470.943,13.29,0.009,18.4
2022-08-17T03:22:03,42.805,6.029,-0.003,0.001,0.001,104.0,104.0,100.0,13.4,1505.2,330.7,-0.8,1.8,2470.898,13.29,0.003,288.4
2022-08-17T03:25:03,42.805,6.029,0.01,0.012,0.001,102.0,105.0,100.0,13.3,1505.2,327.1,-0.7,1.8,2470.92,13.29,0.015,39.8
2022-08-17T03:28:03,42.805,6.029,0.014,0.022,0.03,104.0,102.0,101.0,13.4,1505.2,320.1,-0.8,1.8,2470.904,13.29,0.026,32.5
2022-08-17T03:31:03,42.805,6.029,0.039,-0.016,0.0,103.0,102.0,101.0,13.3,1505.2,333.7,-0.8,1.9,2470.9,13.29,0.042,112.3
2022-08-17T03:34:03,42.805,6.029,0.016,0.021,0.008,101.0,104.0,101.0,13.4,1505.2,328.5,-0.7,1.8,2470.906,13.29,0.026,37.3
2022-08-17T03:37:03,42.805,6.029,0.009,0.032,0.029,104.0,103.0,101.0,13.3,1505.2,333.7,-0.8,1.8,2470.869,13.29,0.033,15.7
2022-08-17T03:40:03,42.805,6.029,0.001,0.009,0.006,103.0,103.0,100.0,13.4,1505.2,327.0,-0.8,1.8,2470.887,13.29,0.009,6.3
2022-08-17T03:43:03,42.805,6.029,0.018,0.015,0.002,104.0,102.0,102.0,13.4,1505.2,320.1,-0.8,1.8,2470.879,13.29,0.023,50.2
2022-08-17T03:46:03,42.805,6.029,0.011,0.002,0.007,101.0,106.0,101.0,13.4,1505.2,328.9,-0.8,1.8,2470.902,13.29,0.011,79.7
2022-08-17T03:49:03,42.805,6.029,0.012,0.0,-0.003,103.0,103.0,100.0,13.4,1505.2,322.0,-0.8,1.8,2470.883,13.29,0.012,90.0
2022-08-17T03:52:03,42.805,6.029,-0.005,-0.001,-0.008,102.0,103.0,101.0,13.3,1505.2,329.7,-0.7,1.8,2470.879,13.29,0.005,258.7
2022-08-17T03:55:03,42.805,6.029,0.039,-0.014,0.011,102.0,103.0,101.0,13.3,1505.2,329.2,-0.8,1.8,2470.904,13.29,0.041,109.7
2022-08-17T03:58:03,42.805,6.029,0.013,-0.009,-0.019,103.0,102.0,101.0,13.3,1505.2,331.5,-0.8,1.8,2470.935,13.29,0.015,124.7
2022-08-17T04:04:03,42.805,6.029,0.004,-0.002,-0.006,102.0,104.0,100.0,13.4,1505.2,328.5,-0.8,1.8,2470.965,13.28,0.004,116.6
2022-08-17T04:07:03,42.805,6.029,0.009,0.018,0.001,102.0,102.0,102.0,13.3,1505.2,327.2,-0.8,1.8,2470.974,13.28,0.02,26.6
2022-08-17T04:10:03,42.805,6.029,0.013,0.02,0.016,103.0,103.0,100.0,13.3,1505.2,327.8,-0.8,1.9,2470.909,13.28,0.023,33.0
2022-08-17T04:13:03,42.805,6.029,-0.015,0.0,0.024,103.0,103.0,100.0,13.3,1505.2,319.1,-0.7,1.8,2470.889,13.28,0.015,270.0
2022-08-17T04:16:03,42.805,6.029,0.023,0.003,0.0,102.0,104.0,102.0,13.4,1505.2,330.2,-0.8,1.8,2470.916,13.29,0.023,82.6
2022-08-17T04:19:03,42.805,6.029,0.016,0.004,-0.016,103.0,103.0,101.0,13.4,1505.2,326.1,-0.8,1.8,2470.914,13.29,0.016,76.0
2022-08-17T04:22:03,42.805,6.029,-0.001,0.001,-0.013,103.0,102.0,102.0,13.4,1505.2,323.1,-0.8,1.8,2470.865,13.29,0.001,315.0
2022-08-17T04:25:03,42.805,6.029,-0.011,0.015,-0.016,102.0,104.0,100.0,13.4,1505.2,327.9,-0.8,1.8,2470.915,13.29,0.018,323.7
2022-08-17T04:28:03,42.805,6.029,0.01,0.003,0.001,103.0,103.0,101.0,13.4,1505.2,325.3,-0.8,1.8,2470.873,13.29,0.01,73.3
2022-08-17T04:31:03,42.805,6.029,0.016,0.012,0.007,103.0,102.0,100.0,13.4,1505.2,323.4,-0.8,1.8,2470.833,13.29,0.02,53.1
2022-08-17T04:34:03,42.805,6.029,0.014,0.002,0.002,103.0,105.0,100.0,13.4,1505.2,318.3,-0.7,1.8,2470.869,13.29,0.014,81.9
2022-08-17T04:37:03,42.805,6.029,0.038,0.0,0.025,103.0,104.0,100.0,13.3,1505.2,330.2,-0.7,1.8,2470.926,13.29,0.038,90.0
2022-08-17T04:40:03,42.805,6.029,0.013,-0.005,-0.027,104.0,102.0,101.0,13.4,1505.2,333.6,-0.8,1.9,2470.869,13.29,0.013,111.0
2022-08-17T04:43:03,42.805,6.029,0.023,0.016,-0.008,103.0,104.0,100.0,13.3,1505.2,329.4,-0.7,1.8,2470.885,13.29,0.028,55.2
2022-08-17T04:46:03,42.805,6.029,0.018,0.0,0.008,101.0,104.0,101.0,13.3,1505.2,320.1,-0.8,1.8,2470.85,13.29,0.018,90.0
2022-08-17T04:49:03,42.805,6.029,0.016,-0.007,-0.018,104.0,104.0,99.0,13.4,1505.2,329.0,-0.7,1.9,2470.847,13.29,0.017,113.6
2022-08-17T04:52:03,42.805,6.029,0.003,0.005,-0.031,102.0,103.0,100.0,13.4,1505.2,329.0,-0.8,1.8,2470.88,13.29,0.005,31.0
2022-08-17T04:55:03,42.805,6.029,0.018,-0.003,0.003,103.0,104.0,101.0,13.3,1505.2,327.1,-0.8,1.8,2470.876,13.29,0.018,99.5
2022-08-17T04:58:03,42.805,6.029,0.0,0.001,0.009,103.0,103.0,101.0,13.4,1505.2,324.3,-0.7,1.8,2470.879,13.29,0.001,0.0
2022-08-17T05:04:03,42.805,6.029,0.026,-0.004,0.016,102.0,103.0,101.0,13.4,1505.2,331.2,-0.7,1.8,2470.921,13.28,0.026,98.7
2022-08-17T05:07:03,42.805,6.029,0.025,0.005,0.0,103.0,104.0,101.0,13.4,1505.2,332.1,-0.7,1.8,2470.893,13.28,0.025,78.7
2022-08-17T05:10:03,42.805,6.029,0.013,0.025,0.019,102.0,104.0,102.0,13.3,1505.2,323.0,-0.8,1.8,2470.87,13.28,0.028,27.5
2022-08-17T05:13:03,42.805,6.029,0.037,0.004,-0.024,102.0,105.0,101.0,13.4,1505.2,321.7,-0.8,1.8,2470.905,13.29,0.037,83.8
2022-08-17T05:16:03,42.805,6.029,0.013,0.009,-0.012,103.0,102.0,101.0,13.4,1505.2,324.1,-0.8,1.8,2470.904,13.29,0.015,55.3
2022-08-17T05:19:03,42.805,6.029,0.01,0.009,0.002,102.0,107.0,101.0,13.4,1505.2,325.4,-0.8,1.8,2470.912,13.29,0.013,48.0
2022-08-17T05:22:03,42.805,6.029,0.001,0.0,-0.028,103.0,104.0,100.0,13.4,1505.2,328.3,-0.7,1.8,2470.891,13.29,0.001,90.0
2022-08-17T05:25:03,42.805,6.029,0.025,0.008,0.024,102.0,104.0,102.0,13.4,1505.2,328.5,-0.7,1.8,2470.884,13.29,0.026,72.3
2022-08-17T05:28:03,42.805,6.029,0.011,0.022,-0.001,103.0,102.0,102.0,13.4,1505.2,334.2,-0.8,1.8,2470.87,13.29,0.024,26.6
2022-08-17T05:31:03,42.805,6.029,0.004,0.014,0.027,102.0,103.0,101.0,13.3,1505.2,332.0,-0.8,1.8,2470.845,13.29,0.014,15.9
2022-08-17T05:34:03,42.805,6.029,0.003,-0.003,-0.026,102.0,103.0,101.0,13.4,1505.2,322.7,-0.7,1.8,2470.845,13.29,0.004,135.0
2022-08-17T05:37:03,42.805,6.029,0.009,0.01,0.006,103.0,101.0,100.0,13.3,1505.2,328.6,-0.7,1.8,2470.848,13.29,0.013,42.0
2022-08-17T05:40:03,42.805,6.029,0.012,0.001,-0.002,103.0,102.0,103.0,13.3,1505.2,324.1,-0.7,1.8,2470.855,13.29,0.012,85.2
2022-08-17T05:43:03,42.805,6.029,0.021,-0.004,-0.016,101.0,104.0,101.0,13.4,1505.2,326.7,-0.8,1.8,2470.875,13.29,0.021,100.8
2022-08-17T05:46:03,42.805,6.029,0.015,-0.009,-0.051,103.0,103.0,101.0,13.4,1505.2,331.6,-0.8,1.8,2470.909,13.29,0.017,121.0
2022-08-17T05:49:03,42.805,6.029,0.023,0.004,-0.014,104.0,103.0,101.0,13.3,1505.2,321.9,-0.8,1.8,2470.841,13.29,0.023,80.1
2022-08-17T05:52:03,42.805,6.029,0.005,-0.013,-0.011,102.0,104.0,101.0,13.4,1505.2,326.9,-0.8,1.8,2470.896,13.29,0.013,159.0
2022-08-17T05:55:03,42.805,6.029,0.037,-0.009,-0.009,103.0,102.0,100.0,13.4,1505.2,322.6,-0.7,1.8,2470.846,13.29,0.038,103.7
2022-08-17T05:58:03,42.805,6.029,0.012,-0.003,-0.034,102.0,103.0,101.0,13.4,1505.2,333.9,-0.8,1.8,2470.848,13.29,0.012,104.0
2022-08-17T06:04:03,42.805,6.029,0.024,0.015,-0.007,102.0,102.0,102.0,13.3,1505.2,319.0,-0.8,1.8,2470.917,13.28,0.028,58.0
2022-08-17T06:07:03,42.805,6.029,0.009,-0.018,-0.037,102.0,103.0,100.0,13.3,1505.2,333.4,-0.7,1.8,2470.871,13.28,0.02,153.4
2022-08-17T06:10:03,42.805,6.029,0.018,-0.003,-0.011,102.0,104.0,101.0,13.4,1505.2,321.5,-0.8,1.8,2470.873,13.28,0.018,99.5
2022-08-17T06:13:03,42.805,6.029,0.018,0.008,-0.002,102.0,103.0,102.0,13.3,1505.2,318.5,-0.8,1.8,2470.879,13.28,0.019,66.0
2022-08-17T06:16:03,42.805,6.029,0.017,-0.006,0.0,102.0,103.0,101.0,13.4,1505.2,321.8,-0.8,1.8,2470.912,13.29,0.018,109.4
2022-08-17T06:19:03,42.805,6.029,-0.007,0.007,-0.003,102.0,104.0,102.0,13.3,1505.2,322.4,-0.7,1.8,2470.859,13.29,0.009,315.0
2022-08-17T06:22:03,42.805,6.029,0.019,-0.015,-0.037,102.0,102.0,100.0,13.4,1505.2,326.0,-0.7,1.9,2470.86,13.29,0.024,128.3
2022-08-17T06:25:03,42.805,6.029,0.016,0.006,0.01,102.0,105.0,102.0,13.3,1505.2,325.8,-0.8,1.8,2470.865,13.29,0.017,69.4
2022-08-17T06:28:03,42.805,6.029,0.019,0.032,-0.004,104.0,104.0,100.0,13.3,1505.2,321.1,-0.7,1.8,2470.852,13.29,0.037,30.7
2022-08-17T06:31:03,42.805,6.029,0.012,-0.012,-0.011,103.0,103.0,100.0,13.3,1505.2,330.7,-0.7,1.8,2470.879,13.29,0.016,135.0
2022-08-17T06:34:03,42.805,6.029,0.001,0.015,-0.013,103.0,104.0,100.0,13.4,1505.2,318.0,-0.8,1.8,2470.873,13.29,0.015,3.8
2022-08-17T06:37:03,42.805,6.029,0.025,-0.004,0.015,103.0,102.0,102.0,13.4,1505.2,323.8,-0.8,1.8,2470.855,13.29,0.025,99.1
2022-08-17T06:40:03,42.805,6.029,0.005,0.004,-0.015,102.0,103.0,101.0,13.4,1505.2,328.1,-0.8,1.8,2470.839,13.29,0.006,51.3
2022-08-17T06:43:03,42.805,6.029,0.004,0.006,-0.007,104.0,103.0,100.0,13.3,1505.2,329.6,-0.7,1.8,2470.837,13.29,0.007,33.7
2022-08-17T06:46:03,42.805,6.029,0.007,-0.012,-0.032,102.0,103.0,101.0,13.3,1505.2,318.9,-0.7,1.8,2470.879,13.29,0.013,149.7
2022-08-17T06:49:03,42.805,6.029,0.011,-0.006,0.012,103.0,103.0,101.0,13.4,1505.2,323.1,-0.8,1.8,2470.858,13.29,0.012,118.6
2022-08-17T06:52:03,42.805,6.029,0.034,0.0,-0.009,103.0,102.0,101.0,13.4,1505.2,331.2,-0.8,1.9,2470.885,13.29,0.034,90.0
2022-08-17T06:55:03,42.805,6.029,0.018,-0.008,0.012,104.0,102.0,101.0,13.4,1505.2,320.4,-0.8,1.8,2470.857,13.29,0.019,114.0
2022-08-17T06:58:03,42.805,6.029,0.02,0.002,-0.015,102.0,103.0,102.0,13.4,1505.2,327.8,-0.8,1.8,2470.884,13.29,0.02,84.3
2022-08-17T07:04:03,42.805,6.029,0.035,-0.002,-0.007,103.0,103.0,101.0,13.4,1505.2,327.9,-0.7,1.8,2470.903,13.28,0.035,93.3
2022-08-17T07:07:03,42.805,6.029,0.0,-0.011,-0.023,104.0,103.0,100.0,13.4,1505.2,324.7,-0.8,1.8,2470.922,13.28,0.011,180.0
2022-08-17T07:10:03,42.805,6.029,-0.005,0.002,-0.027,102.0,103.0,103.0,13.4,1505.2,318.4,-0.7,1.8,2470.955,13.28,0.005,291.8
2022-08-17T07:13:03,42.805,6.029,0.007,0.006,0.008,103.0,102.0,101.0,13.3,1505.2,324.7,-0.7,1.9,2470.916,13.28,0.009,49.4
2022-08-17T07:16:03,42.805,6.029,0.013,-0.018,-0.024,102.0,103.0,101.0,13.4,1505.2,327.0,-0.7,1.8,2470.882,13.28,0.022,144.2
2022-08-17T07:19:03,42.805,6.029,0.046,0.003,-0.015,103.0,103.0,101.0,13.4,1505.2,331.6,-0.8,1.8,2470.882,13.29,0.046,86.3
2022-08-17T07:22:03,42.805,6.029,0.009,0.012,0.007,101.0,103.0,102.0,13.4,1505.2,322.3,-0.7,1.8,2470.914,13.29,0.015,36.9
2022-08-17T07:25:03,42.805,6.029,0.02,0.01,0.021,103.0,103.0,101.0,13.4,1505.2,329.7,-0.8,1.8,2470.891,13.29,0.022,63.4
2022-08-17T07:28:03,42.805,6.029,0.023,-0.018,-0.019,103.0,103.0,101.0,13.3,1505.2,325.7,-0.7,1.8,2470.926,13.29,0.029,128.0
2022-08-17T07:31:03,42.805,6.029,0.008,-0.006,0.007,102.0,104.0,100.0,13.4,1505.2,319.2,-0.7,1.8,2470.89,13.29,0.01,126.9
2022-08-17T07:34:03,42.805,6.029,0.016,-0.007,-0.009,103.0,103.0,101.0,13.3,1505.2,325.1,-0.8,1.8,2470.902,13.29,0.017,113.6
2022-08-17T07:37:03,42.805,6.029,0.015,0.015,-0.001,103.0,103.0,101.0,13.4,1505.2,322.2,-0.8,1.8,2470.891,13.29,0.021,45.0
2022-08-17T07:40:03,42.805,6.029,0.016,0.004,-0.003,104.0,101.0,101.0,13.4,1505.2,323.0,-0.7,1.8,2470.898,13.29,0.016,76.0
2022-08-17T07:43:03,42.805,6.029,0.023,0.004,0.017,102.0,103.0,100.0,13.4,1505.2,331.8,-0.7,1.8,2470.899,13.29,0.023,80.1
2022-08-17T07:46:03,42.805,6.029,0.028,-0.003,-0.017,104.0,101.0,101.0,13.4,1505.2,329.6,-0.8,1.8,2470.876,13.29,0.028,96.1
2022-08-17T07:49:03,42.805,6.029,0.002,-0.008,-0.007,102.0,103.0,102.0,13.4,1505.2,326.9,-0.8,1.8,2470.947,13.29,0.008,166.0
2022-08-17T07:52:03,42.805,6.029,0.025,0.004,-0.03,101.0,103.0,102.0,13.4,1505.2,321.1,-0.8,1.8,2470.936,13.29,0.025,80.9
2022-08-17T07:55:03,42.805,6.029,0.003,-0.004,-0.024,102.0,103.0,101.0,13.4,1505.2,327.4,-0.8,1.8,2470.924,13.29,0.005,143.1
2022-08-17T07:58:03,42.805,6.029,0.008,0.001,-0.003,102.0,104.0,101.0,13.4,1505.2,319.8,-0.8,1.8,2470.935,13.29,0.008,82.9
2022-08-17T08:01:03,42.805,6.029,0.011,0.0,0.003,102.0,103.0,101.0,13.4,1505.2,322.2,-0.8,1.8,2470.936,13.29,0.011,90.0
2022-08-17T08:04:03,42.805,6.029,0.007,0.009,0.0,103.0,104.0,101.0,13.3,1505.2,322.6,-0.8,1.8,2470.947,13.29,0.011,37.9
2022-08-17T08:07:03,42.805,6.029,0.001,0.009,-0.022,101.0,104.0,101.0,13.4,1505.2,333.9,-0.8,1.8,2470.942,13.29,0.009,6.3
2022-08-17T08:10:03,42.805,6.029,0.009,0.008,-0.046,103.0,104.0,99.0,13.4,1505.2,319.0,-0.7,1.8,2470.922,13.29,0.012,48.4
2022-08-17T08:13:03,42.805,6.029,0.026,-0.006,-0.006,102.0,102.0,101.0,13.4,1505.2,327.2,-0.8,1.8,2470.961,13.29,0.026,103.0
2022-08-17T08:16:03,42.805,6.029,0.017,0.0,-0.001,103.0,101.0,101.0,13.4,1505.2,322.8,-0.8,1.8,2470.945,13.29,0.017,90.0
2022-08-17T08:19:03,42.805,6.029,0.0,0.008,-0.009,103.0,103.0,100.0,13.3,1505.2,325.8,-0.8,1.8,2470.919,13.29,0.008,0.0
2022-08-17T08:22:03,42.805,6.029,-0.005,-0.003,-0.013,104.0,102.0,101.0,13.3,1505.2,328.3,-0.8,1.8,2470.935,13.29,0.005,239.0
2022-08-17T08:25:03,42.805,6.029,0.006,-0.012,-0.013,102.0,102.0,101.0,13.4,1505.2,331.7,-0.8,1.8,2470.955,13.29,0.013,153.4
2022-08-17T08:28:03,42.805,6.029,-0.002,0.009,-0.004,103.0,103.0,100.0,13.4,1505.2,328.5,-0.8,1.8,2470.955,13.29,0.009,347.5
2022-08-17T08:31:03,42.805,6.029,0.022,-0.01,0.006,102.0,103.0,101.0,13.4,1505.2,333.1,-0.8,1.8,2470.921,13.29,0.024,114.4
2022-08-17T08:34:03,42.805,6.029,0.008,0.014,-0.002,103.0,103.0,101.0,13.4,1505.2,332.9,-0.8,1.8,2470.933,13.29,0.016,29.7
2022-08-17T08:37:03,42.805,6.029,0.016,-0.002,-0.039,102.0,104.0,101.0,13.3,1505.2,333.9,-0.8,1.8,2470.922,13.29,0.016,97.1
2022-08-17T08:40:03,42.805,6.029,0.014,0.011,0.004,102.0,105.0,101.0,13.3,1505.2,325.9,-0.8,1.8,2470.973,13.29,0.017,51.8
2022-08-17T08:43:03,42.805,6.029,0.034,0.004,0.017,102.0,104.0,101.0,13.4,1505.2,331.7,-0.8,1.8,2470.958,13.29,0.034,83.3
2022-08-17T08:46:03,42.805,6.029,0.019,-0.01,-0.025,103.0,103.0,101.0,13.3,1505.2,326.6,-0.8,1.8,2470.995,13.29,0.021,117.8
2022-08-17T08:49:03,42.805,6.029,0.017,0.002,-0.004,102.0,104.0,100.0,13.4,1505.2,322.7,-0.8,1.8,2470.973,13.29,0.017,83.3
2022-08-17T08:52:03,42.805,6.029,0.005,-0.003,-0.003,102.0,103.0,101.0,13.3,1505.2,331.2,-0.8,1.8,2470.98,13.29,0.005,121.0
2022-08-17T08:55:03,42.805,6.029,0.003,0.004,-0.026,103.0,104.0,101.0,13.4,1505.2,320.4,-0.8,1.8,2470.971,13.29,0.005,36.9
2022-08-17T08:58:03,42.805,6.029,0.031,-0.01,0.01,102.0,103.0,101.0,13.3,1505.2,326.4,-0.7,1.8,2470.974,13.29,0.032,107.9
2022-08-17T09:04:03,42.805,6.029,0.008,0.006,0.001,103.0,103.0,101.0,13.3,1505.2,318.7,-0.8,1.8,2471.022,13.28,0.01,53.1
2022-08-17T09:07:03,42.805,6.029,0.01,0.0,0.021,102.0,103.0,101.0,13.4,1505.2,329.3,-0.8,1.8,2470.979,13.28,0.01,90.0
2022-08-17T09:10:03,42.805,6.029,0.007,-0.006,-0.005,104.0,104.0,100.0,13.3,1505.2,320.7,-0.7,1.8,2471.025,13.28,0.009,130.6
2022-08-17T09:13:03,42.805,6.029,-0.001,0.006,-0.008,103.0,103.0,101.0,13.4,1505.2,326.3,-0.8,1.8,2470.969,13.28,0.006,350.5
2022-08-17T09:16:03,42.805,6.029,0.011,0.022,0.012,102.0,102.0,101.0,13.4,1505.2,333.4,-0.8,1.8,2471.004,13.28,0.024,26.6
2022-08-17T09:19:03,42.805,6.029,0.0,-0.019,-0.035,102.0,103.0,101.0,13.4,1505.2,328.9,-0.8,1.8,2470.995,13.28,0.019,180.0
2022-08-17T09:22:03,42.805,6.029,0.012,-0.003,-0.021,102.0,102.0,102.0,13.3,1505.2,322.2,-0.8,1.8,2470.987,13.29,0.012,104.0
2022-08-17T09:25:03,42.805,6.029,-0.003,0.009,-0.002,104.0,103.0,100.0,13.3,1505.2,325.5,-0.8,1.8,2470.991,13.29,0.009,341.6
2022-08-17T09:28:03,42.805,6.029,0.01,0.003,0.007,103.0,102.0,101.0,13.4,1505.2,322.8,-0.7,1.8,2470.951,13.29,0.01,73.3
2022-08-17T09:31:03,42.805,6.029,0.024,-0.001,0.02,101.0,105.0,100.0,13.4,1505.2,323.4,-0.7,1.9,2470.976,13.29,0.024,92.4
2022-08-17T09:34:03,42.805,6.029,0.027,-0.011,-0.013,101.0,105.0,100.0,13.4,1505.2,322.1,-0.7,1.8,2470.977,13.29,0.029,112.2
2022-08-17T09:37:03,42.805,6.029,0.014,0.005,-0.02,100.0,103.0,101.0,13.3,1505.2,321.7,-0.7,1.8,2470.979,13.29,0.014,70.4
2022-08-17T09:40:03,42.805,6.029,0.01,0.018,0.009,103.0,104.0,101.0,13.4,1505.2,322.7,-0.8,1.9,2470.982,13.29,0.02,29.1
2022-08-17T09:43:03,42.805,6.029,0.008,-0.013,-0.035,104.0,103.0,100.0,13.4,1505.2,323.4,-0.8,1.8,2470.986,13.29,0.015,148.4
2022-08-17T09:46:03,42.805,6.029,0.032,-0.019,-0.021,102.0,103.0,101.0,13.4,1505.2,322.2,-0.7,1.8,2471.005,13.29,0.037,120.7
2022-08-17T09:49:03,42.805,6.029,0.04,0.022,-0.018,102.0,101.0,102.0,13.4,1505.2,323.3,-0.7,1.8,2470.968,13.29,0.045,61.2
2022-08-17T09:52:03,42.805,6.029,0.012,0.025,0.009,103.0,103.0,100.0,13.4,1505.2,322.4,-0.8,1.8,2470.997,13.29,0.027,25.6
2022-08-17T09:55:03,42.805,6.029,0.014,0.007,0.018,102.0,103.0,101.0,13.4,1505.2,323.0,-0.8,1.8,2470.972,13.29,0.015,63.4
2022-08-17T09:58:03,42.805,6.029,0.004,0.016,0.0,103.0,103.0,101.0,13.4,1505.2,318.0,-0.8,1.8,2470.999,13.29,0.016,14.0